Time,TemperatureF,DewpointF,PressureIn,WindDirection,WindDirectionDegrees,WindSpeedMPH,WindSpeedGustMPH,Humidity,HourlyPrecipIn,Conditions,Clouds,dailyrainin,SoftwareType,DateUTC
2013-01-10 07:41:00,39.7,38.4,29.44,WSW,241,0.0,0.0,95,0.00,,---,0.28,VWS V14.00,2013-01-10 15:41:00,
2013-01-10 07:46:00,39.9,38.9,29.44,WSW,241,0.0,0.0,96,0.04,,---,0.00,VWS V14.00,2013-01-10 15:46:00,
2013-01-10 07:51:00,40.1,39.0,29.44,WSW,241,0.0,0.0,96,0.04,,---,0.00,VWS V14.00,2013-01-10 15:51:00,
2013-01-10 07:56:00,39.9,38.9,29.44,WSW,241,0.0,0.0,96,0.04,,---,0.00,VWS V14.00,2013-01-10 15:56:00,
2013-01-10 08:01:00,40.1,39.0,29.44,WSW,241,0.0,0.0,96,0.04,,---,0.00,VWS V14.00,2013-01-10 16:01:00,
2013-01-10 08:06:00,39.9,38.9,29.47,WSW,241,0.0,0.0,96,0.04,,---,0.00,VWS V14.00,2013-01-10 16:06:00,
2013-01-10 08:11:00,39.9,38.9,29.47,WSW,241,0.0,0.0,96,0.04,,---,0.00,VWS V14.00,2013-01-10 16:11:00,
2013-01-10 08:16:00,39.7,38.4,29.47,WSW,241,0.0,0.0,95,0.04,,---,0.00,VWS V14.00,2013-01-10 16:16:00,
2013-01-10 08:21:00,39.7,38.4,29.47,WSW,241,0.0,0.0,95,0.00,,---,0.00,VWS V14.00,2013-01-10 16:21:00,
2013-01-10 08:26:00,39.7,38.4,29.47,WSW,241,0.0,0.0,95,0.00,,---,0.04,VWS V14.00,2013-01-10 16:26:00,
2013-01-10 08:31:00,39.7,38.7,29.47,WSW,241,0.0,0.0,96,0.00,,---,0.04,VWS V14.00,2013-01-10 16:31:00,
2013-01-10 08:36:00,39.7,38.7,29.47,WSW,241,0.0,0.0,96,0.00,,---,0.04,VWS V14.00,2013-01-10 16:36:00,
2013-01-10 08:41:00,39.7,38.7,29.47,WSW,241,0.0,0.0,96,0.00,,---,0.04,VWS V14.00,2013-01-10 16:41:00,
2013-01-10 08:47:00,39.9,38.9,29.47,WSW,241,0.0,0.0,96,0.00,,---,0.04,VWS V14.00,2013-01-10 16:47:00,
2013-01-10 08:51:00,40.1,39.0,29.47,WSW,241,0.0,0.0,96,0.00,,---,0.04,VWS V14.00,2013-01-10 16:51:00,
2013-01-10 08:56:00,39.9,38.9,29.47,WSW,241,0.0,0.0,96,0.00,,---,0.04,VWS V14.00,2013-01-10 16:56:00,
2013-01-10 09:02:00,39.9,38.9,29.47,WSW,241,0.0,0.0,96,0.00,,---,0.04,VWS V14.00,2013-01-10 17:02:00,
2013-01-10 09:07:00,40.1,39.0,29.47,West,272,0.0,0.0,96,0.00,,---,0.04,VWS V14.00,2013-01-10 17:07:00,
2013-01-10 09:12:00,40.3,39.2,29.47,West,272,0.0,0.0,96,0.00,,---,0.04,VWS V14.00,2013-01-10 17:12:00,
2013-01-10 09:17:00,40.3,39.2,29.47,West,272,0.0,0.0,96,0.00,,---,0.04,VWS V14.00,2013-01-10 17:17:00,
2013-01-10 09:22:00,40.3,39.2,29.47,West,272,0.0,0.0,96,0.00,,---,0.04,VWS V14.00,2013-01-10 17:22:00,
2013-01-10 09:27:00,40.5,39.4,29.47,West,273,0.0,0.0,96,0.00,,---,0.04,VWS V14.00,2013-01-10 17:27:00,
2013-01-10 09:32:00,40.5,39.4,29.47,West,272,0.0,0.0,96,0.00,,---,0.04,VWS V14.00,2013-01-10 17:32:00,
2013-01-10 09:37:00,40.3,39.2,29.47,West,272,0.0,0.0,96,0.00,,---,0.04,VWS V14.00,2013-01-10 17:37:00,
2013-01-10 09:42:00,40.1,39.0,29.47,West,272,0.0,0.0,96,0.00,,---,0.04,VWS V14.00,2013-01-10 17:42:00,
2013-01-10 09:47:00,40.3,39.2,29.47,West,272,0.0,0.0,96,0.00,,---,0.04,VWS V14.00,2013-01-10 17:47:00,
2013-01-10 09:52:00,40.3,39.2,29.47,West,272,0.0,0.0,96,0.00,,---,0.04,VWS V14.00,2013-01-10 17:52:00,
2013-01-10 09:57:00,40.1,39.0,29.47,West,272,0.0,0.0,96,0.00,,---,0.04,VWS V14.00,2013-01-10 17:57:00,
2013-01-10 10:02:00,39.9,38.9,29.47,SSE,167,0.0,0.0,96,0.00,,---,0.04,VWS V14.00,2013-01-10 18:02:00,
2013-01-10 10:07:00,40.1,39.0,29.47,SSE,167,0.0,0.0,96,0.04,,---,0.08,VWS V14.00,2013-01-10 18:07:00,
2013-01-10 10:12:00,40.3,39.2,29.47,SSE,166,0.0,0.0,96,0.04,,---,0.08,VWS V14.00,2013-01-10 18:12:00,
2013-01-10 10:17:00,39.7,38.7,29.50,SSE,167,0.0,0.0,96,0.04,,---,0.08,VWS V14.00,2013-01-10 18:17:00,
2013-01-10 10:22:00,39.4,38.3,29.50,SSE,167,0.0,0.0,96,0.04,,---,0.08,VWS V14.00,2013-01-10 18:22:00,
2013-01-10 10:27:00,39.4,38.3,29.50,SSE,166,0.0,0.0,96,0.04,,---,0.08,VWS V14.00,2013-01-10 18:27:00,
2013-01-10 10:32:00,39.6,38.5,29.50,SW,226,0.0,0.0,96,0.04,,---,0.08,VWS V14.00,2013-01-10 18:32:00,
2013-01-10 10:37:00,39.9,39.1,29.47,SE,134,0.0,0.0,97,0.04,,---,0.08,VWS V14.00,2013-01-10 18:37:00,
2013-01-10 10:42:00,40.1,39.3,29.47,SE,134,0.0,0.0,97,0.04,,---,0.08,VWS V14.00,2013-01-10 18:42:00,
2013-01-10 10:47:00,40.3,39.5,29.47,SE,134,0.0,0.0,97,0.04,,---,0.08,VWS V14.00,2013-01-10 18:47:00,
2013-01-10 10:52:00,40.3,39.5,29.47,SE,136,0.0,0.0,97,0.04,,---,0.08,VWS V14.00,2013-01-10 18:52:00,
2013-01-10 10:57:00,40.3,39.5,29.47,SSE,153,0.0,0.0,97,0.04,,---,0.08,VWS V14.00,2013-01-10 18:57:00,
2013-01-10 11:02:00,39.9,39.1,29.47,South,173,0.0,0.0,97,0.04,,---,0.08,VWS V14.00,2013-01-10 19:02:00,
2013-01-10 11:07:00,39.9,39.1,29.47,South,173,0.0,0.0,97,0.04,,---,0.08,VWS V14.00,2013-01-10 19:07:00,
2013-01-10 11:12:00,40.3,39.5,29.47,South,173,0.0,0.0,97,0.04,,---,0.12,VWS V14.00,2013-01-10 19:12:00,
2013-01-10 11:17:00,40.3,39.5,29.47,South,181,0.0,0.0,97,0.04,,---,0.12,VWS V14.00,2013-01-10 19:17:00,
2013-01-10 11:22:00,40.6,39.9,29.47,West,265,0.0,0.0,97,0.04,,---,0.12,VWS V14.00,2013-01-10 19:22:00,
2013-01-10 11:27:00,40.8,40.0,29.47,West,265,0.0,0.0,97,0.04,,---,0.12,VWS V14.00,2013-01-10 19:27:00,
2013-01-10 11:32:00,41.0,40.2,29.47,West,265,0.0,0.0,97,0.04,,---,0.12,VWS V14.00,2013-01-10 19:32:00,
2013-01-10 11:37:00,41.0,40.2,29.47,West,265,0.0,0.0,97,0.04,,---,0.12,VWS V14.00,2013-01-10 19:37:00,
2013-01-10 11:42:00,40.6,39.9,29.47,West,265,0.0,0.0,97,0.04,,---,0.12,VWS V14.00,2013-01-10 19:42:00,
2013-01-10 11:47:00,40.3,39.5,29.47,West,265,0.0,0.0,97,0.04,,---,0.12,VWS V14.00,2013-01-10 19:47:00,
2013-01-10 11:52:00,40.5,39.7,29.47,South,185,0.0,0.0,97,0.04,,---,0.12,VWS V14.00,2013-01-10 19:52:00,
2013-01-10 11:57:00,40.5,39.7,29.47,South,185,0.0,0.0,97,0.04,,---,0.12,VWS V14.00,2013-01-10 19:57:00,
2013-01-10 12:02:00,40.5,39.7,29.47,South,185,0.0,0.0,97,0.04,,---,0.12,VWS V14.00,2013-01-10 20:02:00,
2013-01-10 12:07:00,40.5,39.7,29.47,South,185,0.0,0.0,97,0.04,,---,0.12,VWS V14.00,2013-01-10 20:07:00,
2013-01-10 12:12:00,40.3,39.5,29.47,South,185,0.0,0.0,97,0.04,,---,0.12,VWS V14.00,2013-01-10 20:12:00,
2013-01-10 12:17:00,40.5,39.7,29.47,South,185,0.0,0.0,97,0.04,,---,0.12,VWS V14.00,2013-01-10 20:17:00,
2013-01-10 12:22:00,40.5,39.7,29.47,East,91,0.0,0.0,97,0.04,,---,0.16,VWS V14.00,2013-01-10 20:22:00,
2013-01-10 12:27:00,40.1,39.3,29.47,SE,127,0.0,0.0,97,0.04,,---,0.16,VWS V14.00,2013-01-10 20:27:00,
2013-01-10 12:32:00,39.9,39.1,29.47,West,266,0.0,0.0,97,0.04,,---,0.16,VWS V14.00,2013-01-10 20:32:00,
2013-01-10 12:37:00,39.9,39.1,29.47,SSE,167,0.0,0.0,97,0.04,,---,0.16,VWS V14.00,2013-01-10 20:37:00,
2013-01-10 12:42:00,40.3,39.5,29.47,SSE,167,0.0,0.0,97,0.04,,---,0.16,VWS V14.00,2013-01-10 20:42:00,
2013-01-10 12:47:00,40.3,39.5,29.47,SSE,168,0.0,0.0,97,0.04,,---,0.16,VWS V14.00,2013-01-10 20:47:00,
2013-01-10 12:52:00,40.3,39.5,29.47,SSE,167,0.0,0.0,97,0.04,,---,0.16,VWS V14.00,2013-01-10 20:52:00,
2013-01-10 12:57:00,40.3,39.5,29.47,SSE,167,0.0,0.0,97,0.04,,---,0.16,VWS V14.00,2013-01-10 20:57:00,
2013-01-10 13:03:00,40.5,39.7,29.47,SSE,168,0.0,0.0,97,0.04,,---,0.16,VWS V14.00,2013-01-10 21:03:00,
2013-01-10 13:08:00,40.6,39.9,29.47,SSE,167,0.0,0.0,97,0.04,,---,0.16,VWS V14.00,2013-01-10 21:08:00,
2013-01-10 13:13:00,40.6,39.9,29.47,SSE,168,0.0,0.0,97,0.04,,---,0.20,VWS V14.00,2013-01-10 21:13:00,
2013-01-10 13:18:00,40.8,40.0,29.47,SSE,167,0.0,0.0,97,0.04,,---,0.20,VWS V14.00,2013-01-10 21:18:00,
2013-01-10 13:23:00,40.8,40.0,29.47,SSE,168,0.0,0.0,97,0.04,,---,0.20,VWS V14.00,2013-01-10 21:23:00,
2013-01-10 13:28:00,40.8,40.0,29.47,SSE,168,0.0,0.0,97,0.04,,---,0.20,VWS V14.00,2013-01-10 21:28:00,
2013-01-10 13:33:00,40.8,40.0,29.47,SSE,168,0.0,0.0,97,0.04,,---,0.20,VWS V14.00,2013-01-10 21:33:00,
2013-01-10 13:38:00,41.0,40.2,29.47,SSE,168,0.0,0.0,97,0.04,,---,0.20,VWS V14.00,2013-01-10 21:38:00,
2013-01-10 13:43:00,40.8,40.0,29.47,West,275,0.0,0.0,97,0.04,,---,0.20,VWS V14.00,2013-01-10 21:43:00,
2013-01-10 13:48:00,41.0,40.2,29.47,West,275,0.0,0.0,97,0.04,,---,0.20,VWS V14.00,2013-01-10 21:48:00,
2013-01-10 13:53:00,41.0,40.2,29.47,West,263,0.0,0.0,97,0.04,,---,0.20,VWS V14.00,2013-01-10 21:53:00,
2013-01-10 13:58:00,41.2,40.4,29.47,West,263,0.0,0.0,97,0.04,,---,0.20,VWS V14.00,2013-01-10 21:58:00,
2013-01-10 14:03:00,41.2,40.4,29.47,West,263,0.0,0.0,97,0.04,,---,0.20,VWS V14.00,2013-01-10 22:03:00,
2013-01-10 14:08:00,41.4,40.6,29.47,WSW,256,0.0,0.0,97,0.04,,---,0.20,VWS V14.00,2013-01-10 22:08:00,
2013-01-10 14:13:00,41.5,40.8,29.47,WSW,256,0.0,0.0,97,0.04,,---,0.20,VWS V14.00,2013-01-10 22:13:00,
2013-01-10 14:18:00,41.4,40.6,29.47,WSW,256,0.0,0.0,97,0.04,,---,0.20,VWS V14.00,2013-01-10 22:18:00,
2013-01-10 14:23:00,41.5,40.8,29.47,WSW,255,0.0,0.0,97,0.04,,---,0.24,VWS V14.00,2013-01-10 22:23:00,
2013-01-10 14:28:00,41.7,40.9,29.47,WSW,253,0.0,0.0,97,0.04,,---,0.24,VWS V14.00,2013-01-10 22:28:00,
2013-01-10 14:34:00,41.7,40.9,29.47,SW,229,0.0,0.0,97,0.04,,---,0.24,VWS V14.00,2013-01-10 22:34:00,
2013-01-10 14:39:00,41.7,40.9,29.47,SW,229,0.0,0.0,97,0.04,,---,0.24,VWS V14.00,2013-01-10 22:39:00,
2013-01-10 14:44:00,41.7,40.9,29.47,WSW,252,0.0,0.0,97,0.04,,---,0.24,VWS V14.00,2013-01-10 22:44:00,
2013-01-10 14:49:00,41.7,40.9,29.47,WSW,252,0.0,0.0,97,0.04,,---,0.24,VWS V14.00,2013-01-10 22:49:00,
2013-01-10 14:54:00,41.9,41.1,29.47,WSW,253,0.0,0.0,97,0.04,,---,0.24,VWS V14.00,2013-01-10 22:54:00,
2013-01-10 14:59:00,42.1,41.3,29.47,WSW,252,0.0,0.0,97,0.04,,---,0.24,VWS V14.00,2013-01-10 22:59:00,
2013-01-10 15:04:00,42.1,41.3,29.47,WSW,252,0.0,0.0,97,0.04,,---,0.24,VWS V14.00,2013-01-10 23:04:00,
2013-01-10 15:09:00,42.1,41.3,29.47,WSW,255,0.0,0.0,97,0.04,,---,0.24,VWS V14.00,2013-01-10 23:09:00,
2013-01-10 15:14:00,42.1,41.3,29.47,WSW,255,0.0,0.0,97,0.04,,---,0.24,VWS V14.00,2013-01-10 23:14:00,
2013-01-10 15:19:00,42.1,41.3,29.47,WSW,255,0.0,0.0,97,0.04,,---,0.24,VWS V14.00,2013-01-10 23:19:00,
2013-01-10 15:24:00,41.9,41.1,29.47,WSW,255,0.0,0.0,97,0.04,,---,0.24,VWS V14.00,2013-01-10 23:24:00,
2013-01-10 15:29:00,41.9,41.1,29.47,WSW,258,0.0,0.0,97,0.04,,---,0.24,VWS V14.00,2013-01-10 23:29:00,
2013-01-10 15:34:00,41.9,41.1,29.47,WSW,258,0.0,0.0,97,0.04,,---,0.24,VWS V14.00,2013-01-10 23:34:00,
2013-01-10 15:39:00,41.9,41.1,29.47,WSW,258,0.0,0.0,97,0.04,,---,0.24,VWS V14.00,2013-01-10 23:39:00,
2013-01-10 15:44:00,42.1,41.3,29.47,WSW,258,0.0,0.0,97,0.04,,---,0.24,VWS V14.00,2013-01-10 23:44:00,
2013-01-10 15:49:00,42.3,41.5,29.47,WSW,257,0.0,0.0,97,0.04,,---,0.24,VWS V14.00,2013-01-10 23:49:00,
2013-01-10 15:54:00,42.3,41.5,29.47,WSW,258,0.0,0.0,97,0.04,,---,0.28,VWS V14.00,2013-01-10 23:54:00,
2013-01-10 15:59:00,42.3,41.5,29.47,WSW,258,0.0,0.0,97,0.04,,---,0.28,VWS V14.00,2013-01-10 23:59:00,
2013-01-10 16:04:00,42.3,41.5,29.50,WSW,257,0.0,0.0,97,0.04,,---,0.28,VWS V14.00,2013-01-11 00:04:00,
2013-01-10 16:09:00,42.3,41.5,29.50,WSW,258,0.0,0.0,97,0.04,,---,0.28,VWS V14.00,2013-01-11 00:09:00,
2013-01-10 16:14:00,42.3,41.5,29.50,WSW,258,0.0,0.0,97,0.04,,---,0.28,VWS V14.00,2013-01-11 00:14:00,
2013-01-10 16:19:00,42.3,41.5,29.47,WSW,258,0.0,0.0,97,0.04,,---,0.28,VWS V14.00,2013-01-11 00:19:00,
2013-01-10 16:24:00,42.3,41.5,29.47,WSW,258,0.0,0.0,97,0.04,,---,0.28,VWS V14.00,2013-01-11 00:24:00,
2013-01-10 16:29:00,42.1,41.3,29.47,WSW,258,0.0,0.0,97,0.04,,---,0.28,VWS V14.00,2013-01-11 00:29:00,
2013-01-10 16:34:00,42.1,41.0,29.50,WSW,257,0.0,0.0,96,0.04,,---,0.28,VWS V14.00,2013-01-11 00:34:00,
2013-01-10 16:39:00,42.1,41.0,29.50,WSW,258,0.0,0.0,96,0.04,,---,0.28,VWS V14.00,2013-01-11 00:39:00,
2013-01-10 16:44:00,41.9,40.8,29.50,WSW,257,0.0,0.0,96,0.04,,---,0.28,VWS V14.00,2013-01-11 00:44:00,
2013-01-10 16:49:00,41.9,40.8,29.50,WSW,258,0.0,0.0,96,0.04,,---,0.28,VWS V14.00,2013-01-11 00:49:00,
2013-01-10 16:54:00,41.7,40.7,29.50,WSW,258,0.0,0.0,96,0.04,,---,0.28,VWS V14.00,2013-01-11 00:54:00,
2013-01-10 16:59:00,41.7,40.7,29.50,WSW,258,0.0,0.0,96,0.04,,---,0.28,VWS V14.00,2013-01-11 00:59:00,
2013-01-10 17:04:00,41.5,40.5,29.50,WSW,258,0.0,0.0,96,0.04,,---,0.28,VWS V14.00,2013-01-11 01:04:00,
2013-01-10 17:09:00,41.5,40.5,29.50,WSW,258,0.0,0.0,96,0.04,,---,0.28,VWS V14.00,2013-01-11 01:09:00,
2013-01-10 17:15:00,41.4,40.3,29.50,WSW,258,0.0,0.0,96,0.04,,---,0.28,VWS V14.00,2013-01-11 01:15:00,
2013-01-10 17:20:00,41.2,40.1,29.47,WSW,258,0.0,0.0,96,0.04,,---,0.28,VWS V14.00,2013-01-11 01:20:00,
2013-01-10 17:25:00,41.0,40.0,29.47,WSW,258,0.0,0.0,96,0.04,,---,0.28,VWS V14.00,2013-01-11 01:25:00,
2013-01-10 17:30:00,41.0,40.0,29.47,WSW,258,0.0,0.0,96,0.04,,---,0.28,VWS V14.00,2013-01-11 01:30:00,
2013-01-10 17:35:00,40.8,39.8,29.47,WSW,258,0.0,0.0,96,0.04,,---,0.28,VWS V14.00,2013-01-11 01:35:00,
2013-01-10 17:40:00,40.6,39.6,29.47,WSW,258,0.0,0.0,96,0.04,,---,0.28,VWS V14.00,2013-01-11 01:40:00,
2013-01-10 17:45:00,40.5,39.4,29.47,WSW,258,0.0,0.0,96,0.04,,---,0.28,VWS V14.00,2013-01-11 01:45:00,
2013-01-10 17:50:00,40.5,39.4,29.47,WSW,258,0.0,0.0,96,0.04,,---,0.28,VWS V14.00,2013-01-11 01:50:00,
2013-01-10 17:55:00,40.3,39.2,29.47,WSW,258,0.0,0.0,96,0.04,,---,0.28,VWS V14.00,2013-01-11 01:55:00,
2013-01-10 18:00:00,40.1,39.0,29.47,WSW,258,0.0,0.0,96,0.00,,---,0.28,VWS V14.00,2013-01-11 02:00:00,
2013-01-10 18:05:00,40.1,39.0,29.50,WSW,258,0.0,0.0,96,0.00,,---,0.28,VWS V14.00,2013-01-11 02:05:00,
2013-01-10 18:10:00,40.1,39.0,29.50,WSW,258,0.0,0.0,96,0.00,,---,0.28,VWS V14.00,2013-01-11 02:10:00,
2013-01-10 18:15:00,39.9,38.9,29.50,WSW,258,0.0,0.0,96,0.00,,---,0.28,VWS V14.00,2013-01-11 02:15:00,
2013-01-10 18:20:00,39.9,38.9,29.50,WSW,258,0.0,0.0,96,0.00,,---,0.28,VWS V14.00,2013-01-11 02:20:00,
2013-01-10 18:25:00,39.7,38.7,29.50,WSW,258,0.0,0.0,96,0.00,,---,0.28,VWS V14.00,2013-01-11 02:25:00,
2013-01-10 18:30:00,39.7,38.7,29.50,WSW,258,0.0,0.0,96,0.00,,---,0.28,VWS V14.00,2013-01-11 02:30:00,
2013-01-10 18:35:00,39.6,38.5,29.47,WSW,258,0.0,0.0,96,0.00,,---,0.28,VWS V14.00,2013-01-11 02:35:00,
2013-01-10 18:40:00,39.6,38.5,29.47,WSW,258,0.0,0.0,96,0.00,,---,0.28,VWS V14.00,2013-01-11 02:40:00,
2013-01-10 18:45:00,39.4,38.3,29.47,WSW,258,0.0,0.0,96,0.00,,---,0.28,VWS V14.00,2013-01-11 02:45:00,
2013-01-10 18:50:00,39.4,38.3,29.50,WSW,257,0.0,0.0,96,0.00,,---,0.28,VWS V14.00,2013-01-11 02:50:00,
2013-01-10 18:55:00,39.4,38.3,29.50,WSW,258,0.0,0.0,96,0.00,,---,0.28,VWS V14.00,2013-01-11 02:55:00,
2013-01-10 19:00:00,39.4,38.3,29.50,WSW,258,0.0,0.0,96,0.00,,---,0.28,VWS V14.00,2013-01-11 03:00:00,
2013-01-10 19:05:00,39.2,38.2,29.50,WSW,258,0.0,0.0,96,0.00,,---,0.28,VWS V14.00,2013-01-11 03:05:00,
2013-01-10 19:10:00,39.2,38.2,29.50,WSW,258,0.0,0.0,96,0.00,,---,0.28,VWS V14.00,2013-01-11 03:10:00,
2013-01-10 19:15:00,39.2,38.2,29.50,WSW,258,0.0,0.0,96,0.00,,---,0.28,VWS V14.00,2013-01-11 03:15:00,
2013-01-10 19:20:00,39.2,38.2,29.50,WSW,258,0.0,0.0,96,0.00,,---,0.28,VWS V14.00,2013-01-11 03:20:00,
2013-01-10 19:25:00,39.2,38.2,29.50,WSW,258,0.0,0.0,96,0.00,,---,0.28,VWS V14.00,2013-01-11 03:25:00,
2013-01-10 19:31:00,39.2,38.2,29.50,WSW,258,0.0,0.0,96,0.00,,---,0.28,VWS V14.00,2013-01-11 03:31:00,
2013-01-10 19:36:00,39.0,38.0,29.50,WSW,258,0.0,0.0,96,0.00,,---,0.28,VWS V14.00,2013-01-11 03:36:00,
2013-01-10 19:41:00,39.0,38.0,29.50,WSW,258,0.0,0.0,96,0.00,,---,0.28,VWS V14.00,2013-01-11 03:41:00,
2013-01-10 19:46:00,39.0,38.0,29.50,WSW,257,0.0,0.0,96,0.00,,---,0.28,VWS V14.00,2013-01-11 03:46:00,
2013-01-10 19:51:00,38.8,37.8,29.50,WSW,257,0.0,0.0,96,0.00,,---,0.28,VWS V14.00,2013-01-11 03:51:00,
2013-01-10 19:56:00,38.8,37.8,29.50,WSW,258,0.0,0.0,96,0.00,,---,0.28,VWS V14.00,2013-01-11 03:56:00,
2013-01-10 20:01:00,38.8,37.8,29.50,WSW,258,0.0,0.0,96,0.00,,---,0.28,VWS V14.00,2013-01-11 04:01:00,
2013-01-10 20:06:00,38.7,37.6,29.50,WSW,258,0.0,0.0,96,0.00,,---,0.28,VWS V14.00,2013-01-11 04:06:00,
2013-01-10 20:11:00,38.7,37.6,29.50,WSW,258,0.0,0.0,96,0.00,,---,0.28,VWS V14.00,2013-01-11 04:11:00,
2013-01-10 20:16:00,38.7,37.6,29.50,WSW,258,0.0,0.0,96,0.00,,---,0.28,VWS V14.00,2013-01-11 04:16:00,
2013-01-10 20:21:00,38.7,37.6,29.50,WSW,258,0.0,0.0,96,0.00,,---,0.28,VWS V14.00,2013-01-11 04:21:00,
2013-01-10 20:26:00,38.5,37.4,29.50,WSW,258,0.0,0.0,96,0.00,,---,0.28,VWS V14.00,2013-01-11 04:26:00,
2013-01-10 20:31:00,38.5,37.4,29.50,WSW,258,0.0,0.0,96,0.00,,---,0.28,VWS V14.00,2013-01-11 04:31:00,
2013-01-10 20:36:00,38.5,37.4,29.50,WSW,258,0.0,0.0,96,0.00,,---,0.28,VWS V14.00,2013-01-11 04:36:00,
2013-01-10 20:41:00,38.5,37.4,29.50,WSW,258,0.0,0.0,96,0.00,,---,0.28,VWS V14.00,2013-01-11 04:41:00,
2013-01-10 20:46:00,38.5,37.4,29.50,WSW,258,0.0,0.0,96,0.00,,---,0.28,VWS V14.00,2013-01-11 04:46:00,
2013-01-10 20:51:00,38.5,37.4,29.50,WSW,258,0.0,0.0,96,0.00,,---,0.28,VWS V14.00,2013-01-11 04:51:00,
2013-01-10 20:56:00,38.3,37.3,29.50,WSW,257,0.0,0.0,96,0.00,,---,0.28,VWS V14.00,2013-01-11 04:56:00,
2013-01-10 21:00:00,38.3,37.3,29.50,WSW,258,0.0,0.0,96,0.00,,---,0.28,VWS V14.00,2013-01-11 05:00:00,
2013-01-10 21:02:00,38.1,37.1,29.50,WSW,258,0.0,0.0,96,0.00,,---,0.28,VWS V14.00,2013-01-11 05:02:00,
2013-01-10 21:03:00,38.1,37.1,29.50,WSW,258,0.0,0.0,96,0.00,,---,0.28,VWS V14.00,2013-01-11 05:03:00,
2013-01-10 21:08:00,38.3,37.3,29.50,WSW,258,0.0,0.0,96,0.00,,---,0.28,VWS V14.00,2013-01-11 05:08:00,
2013-01-10 21:13:00,38.1,37.1,29.50,WSW,258,0.0,0.0,96,0.00,,---,0.28,VWS V14.00,2013-01-11 05:13:00,
2013-01-10 21:18:00,38.1,37.1,29.50,WSW,258,0.0,0.0,96,0.00,,---,0.28,VWS V14.00,2013-01-11 05:18:00,
2013-01-10 21:23:00,38.1,37.1,29.50,WSW,258,0.0,0.0,96,0.00,,---,0.28,VWS V14.00,2013-01-11 05:23:00,
2013-01-10 21:28:00,37.9,36.9,29.50,WSW,258,0.0,0.0,96,0.00,,---,0.28,VWS V14.00,2013-01-11 05:28:00,
2013-01-10 21:33:00,37.9,36.9,29.50,WSW,258,0.0,0.0,96,0.00,,---,0.28,VWS V14.00,2013-01-11 05:33:00,
2013-01-10 21:38:00,37.8,36.7,29.50,WSW,258,0.0,0.0,96,0.00,,---,0.28,VWS V14.00,2013-01-11 05:38:00,
2013-01-10 21:43:00,37.8,36.7,29.50,WSW,258,0.0,0.0,96,0.00,,---,0.28,VWS V14.00,2013-01-11 05:43:00,
2013-01-10 21:48:00,37.8,36.7,29.50,WSW,258,0.0,0.0,96,0.00,,---,0.28,VWS V14.00,2013-01-11 05:48:00,
2013-01-10 21:53:00,37.8,36.7,29.50,WSW,258,0.0,0.0,96,0.00,,---,0.28,VWS V14.00,2013-01-11 05:53:00,
2013-01-10 21:58:00,37.6,36.5,29.50,WSW,258,0.0,0.0,96,0.00,,---,0.28,VWS V14.00,2013-01-11 05:58:00,
2013-01-10 22:03:00,37.6,36.5,29.50,WSW,258,0.0,0.0,96,0.00,,---,0.28,VWS V14.00,2013-01-11 06:03:00,
2013-01-10 22:08:00,37.6,36.5,29.50,WSW,258,0.0,0.0,96,0.00,,---,0.28,VWS V14.00,2013-01-11 06:08:00,
2013-01-10 22:13:00,37.6,36.5,29.50,WSW,258,0.0,0.0,96,0.00,,---,0.28,VWS V14.00,2013-01-11 06:13:00,
2013-01-10 22:18:00,37.8,36.7,29.50,WSW,258,0.0,0.0,96,0.00,,---,0.28,VWS V14.00,2013-01-11 06:18:00,
2013-01-10 22:23:00,37.8,36.7,29.50,WSW,258,0.0,0.0,96,0.00,,---,0.28,VWS V14.00,2013-01-11 06:23:00,
2013-01-10 22:28:00,37.6,36.5,29.50,WSW,258,0.0,0.0,96,0.00,,---,0.28,VWS V14.00,2013-01-11 06:28:00,
2013-01-10 22:33:00,37.6,36.5,29.50,WSW,258,0.0,0.0,96,0.00,,---,0.28,VWS V14.00,2013-01-11 06:33:00,
2013-01-10 22:38:00,37.4,36.4,29.50,WSW,258,0.0,0.0,96,0.00,,---,0.28,VWS V14.00,2013-01-11 06:38:00,
2013-01-10 22:44:00,37.6,36.5,29.50,WSW,257,0.0,0.0,96,0.00,,---,0.28,VWS V14.00,2013-01-11 06:44:00,
2013-01-10 22:49:00,37.6,36.5,29.50,WSW,258,0.0,0.0,96,0.00,,---,0.28,VWS V14.00,2013-01-11 06:49:00,
2013-01-10 22:54:00,37.6,36.5,29.50,WSW,258,0.0,0.0,96,0.00,,---,0.28,VWS V14.00,2013-01-11 06:54:00,
2013-01-10 22:59:00,37.6,36.5,29.50,WSW,258,0.0,0.0,96,0.00,,---,0.28,VWS V14.00,2013-01-11 06:59:00,
2013-01-10 23:04:00,37.6,36.5,29.50,WSW,258,0.0,0.0,96,0.00,,---,0.28,VWS V14.00,2013-01-11 07:04:00,
2013-01-10 23:09:00,37.4,36.4,29.50,WSW,258,0.0,0.0,96,0.00,,---,0.28,VWS V14.00,2013-01-11 07:09:00,
2013-01-10 23:14:00,37.4,36.4,29.50,WSW,258,0.0,0.0,96,0.00,,---,0.28,VWS V14.00,2013-01-11 07:14:00,
2013-01-10 23:19:00,37.4,36.4,29.53,WSW,258,0.0,0.0,96,0.00,,---,0.28,VWS V14.00,2013-01-11 07:19:00,
2013-01-10 23:24:00,37.4,36.4,29.53,WSW,258,0.0,0.0,96,0.00,,---,0.28,VWS V14.00,2013-01-11 07:24:00,
2013-01-10 23:29:00,37.4,36.4,29.53,WSW,258,0.0,0.0,96,0.00,,---,0.28,VWS V14.00,2013-01-11 07:29:00,
2013-01-10 23:34:00,37.4,36.4,29.53,WSW,258,0.0,0.0,96,0.00,,---,0.28,VWS V14.00,2013-01-11 07:34:00,
2013-01-10 23:39:00,37.2,36.2,29.53,WSW,258,0.0,0.0,96,0.00,,---,0.28,VWS V14.00,2013-01-11 07:39:00,
2013-01-10 23:44:00,37.4,36.4,29.53,WSW,258,0.0,0.0,96,0.00,,---,0.28,VWS V14.00,2013-01-11 07:44:00,
2013-01-10 23:49:00,37.2,36.2,29.53,WSW,258,0.0,0.0,96,0.00,,---,0.28,VWS V14.00,2013-01-11 07:49:00,
2013-01-10 23:54:00,37.2,36.2,29.53,WSW,258,0.0,0.0,96,0.00,,---,0.28,VWS V14.00,2013-01-11 07:54:00,
2013-01-10 23:59:00,37.0,36.0,29.53,WSW,258,0.0,0.0,96,0.00,,---,0.28,VWS V14.00,2013-01-11 07:59:00,